Flag for Belarus Weather past 2 weeks in Gomel, Belarus

Now
52 °F

Clear.


Feels Like: 50 °F
Forecast: 48 / 71 °F
Wind: 6 mph from Northeast

Location: Gomel'


UV Index: 0 (Low)

Visibility: 10 mi


Pressure: 30.09 "Hg

Humidity: 82%

Dew point: 46 °F

Location of GomelLocation

Historic Weather in Gomel

°F

Gomel temperature yesterday

Maximum temperature yesterday: 64 °F (at 5:00 PM)
Minimum temperature yesterday: 46 °F (at 6:00 AM)
Average temperature yesterday: 55 °F

Past Weeks' High & Low Weather Summary

 TemperatureHumidityPressure
High64 °F (Apr 8, 4:00 PM)100% (Apr 9, 11:00 AM)30.33 "Hg (Apr 9, 11:00 AM)
Low25 °F (Apr 5, 6:30 AM)21% (Apr 6, 5:00 PM)29.65 "Hg (Apr 15, 6:30 AM)
Average46 °F69%30.01 "Hg
* Reported Apr 3 11:00 PM — Apr 18 11:00 PM, Gomel, Weather by CustomWeather, © 2014

Note: Actual official high and low records may vary slightly from our data, if they occured in-between our weather recording intervals... More about our weather records

Advertising

Historic Weather Conditions — Data for Previous 24 hours

 ConditionsComfort  
Time TempWeatherWind HumidityBarometerVisibility
11:00 PM
Apr 18
52 °FClear.6 mph82%30.09 "Hg10 mi
10:00 PM54 °FClear.6 mph72%30.09 "Hg10 mi
9:00 PM57 °FClear.6 mph67%30.07 "Hg10 mi
8:00 PM61 °FSunny.6 mph59%30.07 "Hg10 mi
7:30 PM64 °FSunny.6 mph56%30.07 "Hg10 mi
7:00 PM64 °FScattered clouds.6 mph56%30.07 "HgN/A
6:30 PM64 °FPassing clouds.3 mph49%30.07 "HgN/A
6:00 PM64 °FPassing clouds.6 mph49%30.07 "HgN/A
5:30 PM64 °FPassing clouds.6 mph49%30.07 "HgN/A
5:00 PM64 °FPassing clouds.6 mph49%30.07 "HgN/A
4:30 PM63 °FScattered clouds.8 mph59%30.07 "HgN/A
4:00 PM63 °FScattered clouds.8 mph59%30.07 "HgN/A
3:30 PM61 °FScattered clouds.8 mph63%30.07 "HgN/A
3:00 PM61 °FScattered clouds.10 mph63%30.07 "HgN/A
2:30 PM61 °FSunny.10 mph68%30.07 "Hg10 mi
2:00 PM61 °FSunny.10 mph68%30.07 "Hg10 mi
1:30 PM59 °FSunny.10 mph72%30.07 "Hg10 mi
1:00 PM59 °FSunny.10 mph72%30.09 "Hg10 mi
12:30 PM55 °FSunny.13 mph77%30.09 "Hg10 mi
12:00 PM55 °FPartly sunny.13 mph77%30.09 "HgN/A
11:30 AM52 °FPartly sunny.13 mph88%30.09 "HgN/A
11:00 AM52 °FBroken clouds.13 mph88%30.09 "HgN/A
10:30 AM50 °FBroken clouds.10 mph88%30.09 "HgN/A
10:00 AM50 °FBroken clouds.10 mph88%30.09 "HgN/A
9:30 AM48 °FBroken clouds.10 mph87%30.09 "HgN/A
9:00 AM48 °FMore clouds than sun.8 mph87%30.09 "HgN/A
8:30 AM46 °FMostly cloudy.8 mph87%30.09 "HgN/A
8:00 AM46 °FMostly cloudy.8 mph93%30.09 "HgN/A
7:30 AM46 °FSprinkles. Overcast.6 mph87%30.09 "Hg4 mi
7:00 AM46 °FSprinkles. Overcast.8 mph87%30.09 "Hg3 mi
6:30 AM46 °FSprinkles. Overcast.3 mph87%30.09 "Hg4 mi
6:00 AM46 °FSprinkles. Overcast.6 mph87%30.09 "Hg3 mi
5:00 AM48 °FSprinkles. Mostly cloudy.10 mph87%30.09 "HgN/A
4:00 AM48 °FMostly cloudy.6 mph82%30.12 "HgN/A
3:00 AM48 °FSprinkles. Mostly cloudy.6 mph87%30.12 "HgN/A
2:00 AM48 °FSprinkles. Mostly cloudy.6 mph76%30.12 "HgN/A
1:00 AM48 °FClear.6 mph76%30.12 "Hg10 mi
12:00 AM52 °FClear.6 mph72%30.15 "Hg10 mi
Weather by CustomWeather, © 2014

See weather overview